Weather History for Spirit of St Louis, MO

Change the Weather History Date:

Sunday, March 30, 2014

  Actual Average Record
Temperature  
Mean Temperature 44 °F -  
Max Temperature 68 °F 60 °F 82 °F (2012)
Min Temperature 21 °F 37 °F 21 °F (2014)
Degree Days  
Heating Degree Days 22    
Moisture  
Dew Point 26 °F    
Average Humidity 75    
Maximum Humidity 100    
Minimum Humidity 25    
Precipitation  
Precipitation 0.00 in - - ()
Sea Level Pressure  
Sea Level Pressure 30.21 in    
Wind  
Wind Speed 2 mph (SSE)    
Max Wind Speed 13 mph    
Max Gust Speed 18 mph    
Visibility 5 miles    
Events Fog    
Averages and records for this station are not official NWS values.
T = Trace of Precipitation, MM = Missing Value Source: NWS Daily Summary

Daily Weather History Graph

Daily Weather History Graph

Search for Another Location

Airport:

Trip Planner

Search our weather history database for the weather conditions in past years. The results will help you decide how hot, cold, wet, or windy it might be!

Date:

Astronomy

Mar. 30, 2014 Rise Set
Actual Time 6:50 AM CDT 7:24 PM CDT
Civil Twilight 6:23 AM CDT 7:50 PM CDT
Nautical Twilight 5:52 AM CDT 8:22 PM CDT
Astronomical Twilight 5:20 AM CDT 8:54 PM CDT
Moon 6:36 AM CDT (3/30) 7:36 PM CDT (3/30)
Length of Visible Light 13h 27m
Length of Day
12h 33m
Waning Crescent, 0% of the Moon is Illuminated
Mar 30
Waning Crescent
Mar 30
New
Apr 7
First Quarter
Apr 15
Full
Apr 22
Last Quarter

Hourly Weather History & Observations

Time (CDT) Temp. Windchill Dew Point Humidity Pressure Visibility Wind Dir Wind Speed Gust Speed Precip Events Conditions
12:54 AM 26.1 °F - 25.0 °F 96% 30.29 in 4.0 mi Calm Calm - N/A   Clear
1:54 AM 26.1 °F - 24.1 °F 92% 30.30 in 4.0 mi Calm Calm - N/A   Clear
2:54 AM 26.1 °F - 25.0 °F 96% 30.27 in 4.0 mi Calm Calm - N/A   Clear
3:36 AM 24.8 °F - 23.0 °F 93% 30.25 in 1.8 mi Calm Calm - N/A   Clear
3:51 AM 26.6 °F - 24.8 °F 93% 30.24 in 3.0 mi Calm Calm - N/A   Clear
3:54 AM 26.1 °F - 24.1 °F 92% 30.26 in 3.0 mi Calm Calm - N/A   Clear
4:13 AM 24.8 °F - 23.0 °F 93% 30.25 in 2.0 mi Calm Calm - N/A   Clear
4:31 AM 24.8 °F - 23.0 °F 93% 30.25 in 4.0 mi Calm Calm - N/A   Clear
4:54 AM 25.0 °F - 23.0 °F 92% 30.26 in 3.0 mi Calm Calm - N/A   Clear
5:02 AM 24.8 °F - 23.0 °F 93% 30.24 in 1.8 mi Calm Calm - N/A   Clear
5:17 AM 24.8 °F - 24.8 °F 100% 30.23 in 2.5 mi Calm Calm - N/A   Clear
5:28 AM 24.8 °F - 23.0 °F 93% 30.24 in 3.0 mi Calm Calm - N/A   Clear
5:46 AM 23.0 °F - 21.2 °F 93% 30.24 in 2.0 mi Calm Calm - N/A   Clear
5:54 AM 23.0 °F - 21.0 °F 92% 30.26 in 2.0 mi Calm Calm - N/A   Clear
6:12 AM 23.0 °F - 21.2 °F 93% 30.24 in 1.2 mi Calm Calm - N/A   Clear
6:17 AM 23.0 °F - 21.2 °F 93% 30.24 in 1.0 mi Calm Calm - N/A   Mist
6:24 AM 24.8 °F - 21.2 °F 86% 30.24 in 0.2 mi Calm Calm - N/A Fog Light Freezing Fog
6:33 AM 23.0 °F - 21.2 °F 93% 30.24 in 1.0 mi Calm Calm - N/A   Mist
6:35 AM 23.0 °F - 21.2 °F 93% 30.25 in 2.0 mi Calm Calm - N/A   Scattered Clouds
6:43 AM 21.2 °F - 21.2 °F 100% 30.25 in 1.2 mi Calm Calm - N/A   Partly Cloudy
6:51 AM 23.0 °F - 21.2 °F 93% 30.24 in 0.2 mi Calm Calm - N/A Fog Light Freezing Fog
6:54 AM 23.0 °F - 21.9 °F 96% 30.27 in 0.2 mi Calm Calm - N/A Fog Light Freezing Fog
7:03 AM 24.8 °F - 23.0 °F 93% 30.24 in 1.2 mi Calm Calm - N/A   Partly Cloudy
7:13 AM 24.8 °F - 23.0 °F 93% 30.24 in 2.5 mi Calm Calm - N/A   Partly Cloudy
7:22 AM 23.0 °F - 21.2 °F 93% 30.24 in 3.0 mi Calm Calm - N/A   Clear
7:54 AM 27.0 °F - 26.1 °F 96% 30.28 in 3.0 mi Calm Calm - N/A   Clear
8:03 AM 28.4 °F - 26.6 °F 93% 30.26 in 2.5 mi Calm Calm - N/A   Clear
8:15 AM 28.4 °F - 26.6 °F 93% 30.26 in 3.0 mi Calm Calm - N/A   Clear
8:54 AM 35.1 °F - 30.9 °F 85% 30.28 in 4.0 mi Calm Calm - N/A   Clear
9:54 AM 45.0 °F 39.3 °F 32.0 °F 60% 30.29 in 5.0 mi South 11.5 mph 16.1 mph N/A   Haze
10:54 AM 50.0 °F - 33.1 °F 52% 30.27 in 7.0 mi South 9.2 mph - N/A   Haze
11:54 AM 54.0 °F - 33.1 °F 45% 30.23 in 10.0 mi South 8.1 mph - N/A   Mostly Cloudy
12:54 PM 57.9 °F - 33.1 °F 39% 30.21 in 10.0 mi SSE 10.4 mph - N/A   Clear
1:54 PM 62.1 °F - 30.9 °F 31% 30.18 in 10.0 mi Variable 5.8 mph 16.1 mph N/A   Clear
2:54 PM 64.0 °F - 30.9 °F 29% 30.13 in 10.0 mi South 9.2 mph - N/A   Scattered Clouds
3:54 PM 66.0 °F - 30.0 °F 26% 30.10 in 10.0 mi South 6.9 mph - N/A   Mostly Cloudy
4:54 PM 66.9 °F - 30.0 °F 25% 30.06 in 10.0 mi South 12.7 mph 18.4 mph N/A   Clear
5:54 PM 64.9 °F - 28.9 °F 26% 30.06 in 10.0 mi SSE 9.2 mph - N/A   Clear
6:54 PM 64.0 °F - 30.9 °F 29% 30.05 in 10.0 mi SE 10.4 mph - N/A   Mostly Cloudy
7:54 PM 60.1 °F - 30.0 °F 32% 30.04 in 10.0 mi SE 4.6 mph - N/A   Mostly Cloudy
8:54 PM 57.0 °F - 32.0 °F 39% 30.05 in 10.0 mi SE 4.6 mph - N/A   Mostly Cloudy
9:54 PM 55.9 °F - 34.0 °F 44% 30.04 in 10.0 mi SE 6.9 mph - N/A   Clear
10:54 PM 54.0 °F - 35.1 °F 49% 30.04 in 10.0 mi South 9.2 mph - N/A   Clear
11:54 PM 53.1 °F - 35.1 °F 50% 30.04 in 10.0 mi SSE 9.2 mph - N/A   Clear